STARLINK-35938, 66644

Orbit data source: Space-Track

STARLINK-35938, 66644 is a payload satellite owned by SpaceX/Seattle (US) in LEO that was launched on Sun, 23 Nov 2025 UTC via an FALCON 9 launch vehicle from the Air Force Western Test Range (AFWTR). Payload-class satellites include a variety of spacecraft equipped with specific instruments for various scientific and technological missions. These include communications satellites like Starlink; space stations such as the ISS; scientific satellites like the Hubble; Earth observation satellites from companies like Planet Labs, Umbra, and HawkEye 360; GPS; miniature CubeSats for education and research; and military/defense satellites.

Loading next visibility...
Identifier
66644, 2025-271AD
Orbit
LEO
Country
Flag of USUS
Related business
Manufacturer
SpaceX/Seattle
Mission
Operational Commercial Communications
Bus & Motor
STARLINK V2MO, Unknown motor
Mass
575 kg wet, ~530 kg dry
Launch date (UTC)
2025-11-23 (10 months ago)
Launch vehicle
FALCON 9
Launch site
Air Force Western Test Range (AFWTR)
Object type
Payload
Rocket body
Debris
Shape & HBR
Box + 1 Pan, 17.7 m
Radar Cross Section
41.120 m², Large (>1 m²)

Expand to show TLE details & history
Last TLE update: 12 hours ago

TLE from 12 hours ago
0 STARLINK-35938
1 66644U 25271AD  26265.47144933  .00022424  00000-0  67223-3 0  9996
2 66644  53.1587 304.5705 0001604  87.5179 272.6007 15.34428042 47715
Epoch: 2026-09-22T11:18Z
TLE epoch observation values (Epoch: 2026-09-22T11:18:53.222Z)
Latitude
-0.00002°
Longitude
133.51228°
Altitude
463.472 km
Speed
7.636 km/s
True Right ascension
20h 18m 16s
True Declination
0° 00' 00"
Sunlit
Object was in full shadow at epoch
Visualization orbit readout
Latitude
Unknown
Longitude
Unknown
Altitude
Unknown
Speed
Unknown
Apparent Right ascension
Unknown
Apparent Declination
Unknown
Sunlit
N/A
Visualization observer readout
Local Sidereal Time
16:27:30
Azimuth
Unknown
Elevation
Unknown
Doppler factor
Unknown
Orbital elements
Apogee altitude
463.974 km
Perigee altitude
461.78 km
Semi-major axis
6,841.014 km
Eccentricity
0.00016
Inclination
53.1587°
RAAN
304.5705°
Arg. of periapsis
87.5179°
True anomaly
272.58234°
Mean anomaly
272.6007°
Eccentric anomaly
272.59152°
Mean motion
3.83586 °/min
Orbital period
93.85 mins
BSTAR
0.00067223
Loading maneuver chart data...
Computing Atmospheric mass density...
Loading historical data...
Loading historical data...
Loading historical data...
Loading historical data...
Loading historical data...
Loading historical data...
Loading historical data...

Documentation

Showing up to 5 results
|